Weather History for Anniston, AL

Change the Weather History Date:

Thursday, January 30, 2014

  Actual Average Record
Temperature  
Mean Temperature 25 °F 44 °F  
Max Temperature 45 °F 55 °F 79 °F (1950)
Min Temperature 5 °F 34 °F 0 °F (1966)
Degree Days  
Heating Degree Days 40    
Month to date heating degree days 868  
Since 1 July heating degree days 1941  
Moisture  
Dew Point 8 °F    
Average Humidity 52    
Maximum Humidity 83    
Minimum Humidity 20    
Precipitation  
Precipitation 0.00 in 0.16 in 2.65 in (2013)
Month to date precipitation 3.05 4.35  
Year to date precipitation 3.05 4.35  
Sea Level Pressure  
Sea Level Pressure 30.31 in    
Wind  
Wind Speed 5 mph (ENE)    
Max Wind Speed 12 mph    
Max Gust Speed 16 mph    
Visibility 10 miles    
Events      
T = Trace of Precipitation, MM = Missing Value Source: NWS Daily Summary

Daily Weather History Graph

Daily Weather History Graph

Search for Another Location

Airport:

Trip Planner

Search our weather history database for the weather conditions in past years. The results will help you decide how hot, cold, wet, or windy it might be!

Date:

Astronomy

Jan. 30, 2014 Rise Set
Actual Time 6:41 AM CST 5:12 PM CST
Civil Twilight 6:14 AM CST 5:39 PM CST
Nautical Twilight 5:44 AM CST 6:08 PM CST
Astronomical Twilight 5:15 AM CST 6:38 PM CST
Moon 6:08 AM CST (1/30) 5:20 PM CST (1/30)
Length of Visible Light 11h 24m
Length of Day
10h 31m
Waning Crescent, 0% of the Moon is Illuminated
Jan 30
Waning Crescent
Jan 30
New
Feb 6
First Quarter
Feb 14
Full
Feb 22
Last Quarter

Hourly Weather History & Observations

Time (CST) Temp. Windchill Dew Point Humidity Pressure Visibility Wind Dir Wind Speed Gust Speed Precip Events Conditions
12:53 AM 9.0 °F 2.4 °F 3.9 °F 80% 30.40 in 10.0 mi NE 3.5 mph - N/A   Clear
1:53 AM 8.1 °F -0.5 °F 3.0 °F 80% 30.39 in 10.0 mi East 4.6 mph - N/A   Clear
2:53 AM 8.1 °F -0.5 °F 1.9 °F 76% 30.39 in 10.0 mi ENE 4.6 mph - N/A   Clear
3:53 AM 7.0 °F 0.1 °F 1.9 °F 80% 30.40 in 10.0 mi ENE 3.5 mph - N/A   Clear
4:53 AM 7.0 °F -1.7 °F 1.0 °F 77% 30.39 in 10.0 mi East 4.6 mph - N/A   Clear
5:53 AM 6.1 °F -0.9 °F -0.0 °F 76% 30.41 in 10.0 mi East 3.5 mph - N/A   Clear
6:53 AM 5.0 °F -5.6 °F -0.0 °F 80% 30.41 in 10.0 mi East 5.8 mph - N/A   Clear
7:53 AM 10.9 °F 1.4 °F 1.9 °F 67% 30.42 in 10.0 mi NE 5.8 mph - N/A   Clear
8:53 AM 18.0 °F 8.7 °F 3.9 °F 54% 30.41 in 10.0 mi NE 6.9 mph - N/A   Clear
9:53 AM 27.0 °F 19.5 °F 3.9 °F 37% 30.42 in 10.0 mi NE 6.9 mph - N/A   Clear
10:53 AM 32.0 °F 25.6 °F 9.0 °F 38% 30.37 in - NE 6.9 mph - N/A   Clear
11:53 AM 36.0 °F 33.3 °F 10.9 °F 36% 30.34 in - ENE 3.5 mph - N/A   Clear
12:53 PM 37.9 °F 32.7 °F 12.0 °F 35% 30.27 in - NNE 6.9 mph - N/A   Clear
1:53 PM 42.1 °F 36.6 °F 12.0 °F 29% 30.22 in - East 9.2 mph - N/A   Clear
2:53 PM 44.1 °F 39.5 °F 9.0 °F 24% 30.22 in - East 8.1 mph - N/A   Clear
3:53 PM 44.1 °F 40.8 °F 7.0 °F 22% 30.20 in - South 5.8 mph - N/A   Clear
4:53 PM 42.1 °F 39.2 °F 12.0 °F 29% 30.21 in - ESE 4.6 mph - N/A   Clear
5:53 PM 37.0 °F 33.3 °F 10.9 °F 34% 30.22 in - SE 4.6 mph - N/A   Clear
6:53 PM 30.0 °F - 18.0 °F 61% 30.24 in 10.0 mi Calm Calm - N/A   Clear
7:53 PM 28.9 °F 23.9 °F 17.1 °F 61% 30.23 in 10.0 mi ENE 4.6 mph - N/A   Clear
8:53 PM 30.9 °F 26.2 °F 15.1 °F 52% 30.23 in 10.0 mi NE 4.6 mph - N/A   Clear
9:53 PM 26.1 °F - 15.1 °F 63% 30.24 in 10.0 mi Calm Calm - N/A   Clear
10:53 PM 28.9 °F - 16.0 °F 58% 30.24 in 10.0 mi Calm Calm - N/A   Clear
11:53 PM 25.0 °F 20.7 °F 18.0 °F 75% 30.22 in 10.0 mi NE 3.5 mph - N/A   Clear